Location: ????
(55.5675°N, 37.6272°E)
Time: 19:59:24
(UTC+00:00)

USA 229 DEB - Pass Details

Date: 14 April 2026
Orbit: 844 x 1364 km, 63.4° (Epoch: 10 January)

Event Time Altitude Azimuth Distance (km) Brightness Sun altitude
Rises 23:41:43 0° 311° (NW) 3,953 6.8 -19.2°
Reaches altitude 10° 23:44:25 10° 305° (NW) 3,065 6.1 -19.0°
Maximum altitude 23:51:19 43° 237° (WSW) 1,684 4.3 -18.4°
Drops below altitude 10° 23:58:54 10° 169° (S) 3,353 5.9 -17.7°
Sets 00:01:59 0° 164° (SSE) 4,358 6.6 -17.4°
